Location: Strawberry
(45.6646°N, 111.9596°W)
Time: 21:35:30
(UTC+00:00)

Explorer 11/Cluster Stage 4 - Pass Details

Date: 10 October 2022
Orbit: 466 x 1248 km, 28.8° (Epoch: 28 November)

Event Time Altitude Azimuth Distance (km) Brightness Sun altitude
Rises 17:29:44 0° 239° (WSW) 4,014 10.2 32.5°
Reaches altitude 10° 17:33:10 10° 226° (SW) 3,131 9.9 32.8°
Maximum altitude 17:39:02 23° 178° (S) 2,379 10.4 33.3°
Drops below altitude 10° 17:45:00 10° 131° (SE) 3,197 10.9 33.8°
Sets 17:48:33 0° 118° (ESE) 4,119 11.0 34.1°
